Belmar-Farmingdale, NJ

4:45 AM EDT on September 22, 2017 (GMT -0400)
Allaire

Weather History for KBLM - January, 2012

Change the Weather History Date:

Friday, January 13, 2012

  Actual Average Record
Temperature  
Mean Temperature 40 °F -  
Max Temperature 50 °F 36 °F 66 °F (2005)
Min Temperature 30 °F 23 °F 15 °F (1997)
Degree Days  
Heating Degree Days 25    
Moisture  
Dew Point 28 °F    
Average Humidity 67    
Maximum Humidity 93    
Minimum Humidity 41    
Precipitation  
Precipitation 0.01 in - - ()
Sea Level Pressure  
Sea Level Pressure 29.49 in    
Wind  
Wind Speed 13 mph (SW)    
Max Wind Speed 26 mph    
Max Gust Speed 39 mph    
Visibility 9 miles    
Events      
Averages and records for this station are not official NWS values.
T = Trace of Precipitation, MM = Missing Value Source: NWS Daily Summary

Daily Weather History Graph

Daily Weather History Graph

Search for Another Location

Airport or City:

Trip Planner

Search our weather history database for the weather conditions in past years. The results will help you decide how hot, cold, wet, or windy it might be!

Date:

Astronomy

Jan. 13, 2012 Rise Set
Actual Time 7:17 AM EST 4:52 PM EST
Civil Twilight 6:47 AM EST 5:22 PM EST
Nautical Twilight 6:14 AM EST 5:56 PM EST
Astronomical Twilight 5:41 AM EST 6:28 PM EST
Moon 10:02 PM EST (1/13) 9:30 AM EST (1/13)
Length of Visible Light 10h 34m
Length of Day
9h 34m
Waning Gibbous, 79% of the Moon is Illuminated
Jan 13
Waning Gibbous
Jan 16
Last Quarter
Jan 23
New
Jan 30
First Quarter
Feb 7
Full

Hourly Weather History & Observations

Time (EST) Temp. Windchill Dew Point Humidity Pressure Visibility Wind Dir Wind Speed Gust Speed Precip Events Conditions
12:15 AM 46.4 °F 42.9 °F 44.6 °F 93% 29.48 in 5.0 mi SSE 6.9 mph - N/A   Overcast
12:35 AM 46.4 °F 42.4 °F 44.6 °F 93% 29.47 in 4.0 mi SSE 8.1 mph - N/A   Overcast
12:55 AM 46.4 °F 44.3 °F 44.6 °F 93% 29.46 in 5.0 mi South 4.6 mph - N/A   Overcast
1:15 AM 46.4 °F 42.9 °F 44.6 °F 93% 29.46 in 5.0 mi South 6.9 mph - N/A   Overcast
1:35 AM 46.4 °F 43.5 °F 44.6 °F 93% 29.45 in 5.0 mi South 5.8 mph - N/A   Overcast
1:55 AM 46.4 °F 42.4 °F 44.6 °F 93% 29.45 in 7.0 mi South 8.1 mph - N/A   Overcast
2:15 AM 46.4 °F 43.5 °F 44.6 °F 93% 29.43 in 9.0 mi South 5.8 mph - N/A   Overcast
2:35 AM 46.4 °F 41.1 °F 44.6 °F 93% 29.42 in 10.0 mi South 11.5 mph 17.3 mph N/A   Overcast
2:55 AM 46.4 °F 43.5 °F 44.6 °F 93% 29.41 in 10.0 mi South 5.8 mph - N/A   Overcast
3:15 AM 46.4 °F 42.9 °F 44.6 °F 93% 29.40 in 10.0 mi SSE 6.9 mph - N/A   Overcast
3:35 AM 46.4 °F 43.5 °F 44.6 °F 93% 29.38 in 8.0 mi SSE 5.8 mph - N/A   Overcast
3:55 AM 46.4 °F 42.4 °F 44.6 °F 93% 29.36 in 10.0 mi SSE 8.1 mph - N/A   Mostly Cloudy
4:15 AM 46.4 °F 42.4 °F 44.6 °F 93% 29.35 in 10.0 mi SSE 8.1 mph - N/A   Mostly Cloudy
4:35 AM 46.4 °F 42.4 °F 44.6 °F 93% 29.35 in 10.0 mi South 8.1 mph - N/A   Overcast
4:55 AM 48.2 °F - 44.6 °F 87% 29.33 in 10.0 mi South 10.4 mph - N/A   Partly Cloudy
5:15 AM 48.2 °F - 44.6 °F 87% 29.32 in 10.0 mi South 10.4 mph 17.3 mph N/A   Partly Cloudy
5:35 AM 48.2 °F - 44.6 °F 87% 29.29 in 10.0 mi South 10.4 mph 19.6 mph N/A   Scattered Clouds
5:55 AM 48.2 °F - 46.4 °F 93% 29.29 in 10.0 mi South 10.4 mph 16.1 mph N/A   Partly Cloudy
6:15 AM 50.0 °F - 44.6 °F 82% 29.28 in 10.0 mi SSW 16.1 mph 26.5 mph N/A   Clear
6:35 AM 50.0 °F - 44.6 °F 82% 29.30 in 8.0 mi WSW 25.3 mph 34.5 mph 0.01 in   Mostly Cloudy
6:55 AM 44.6 °F 37.4 °F 39.2 °F 81% 29.34 in 10.0 mi West 16.1 mph 28.8 mph 0.01 in   Mostly Cloudy
7:15 AM 42.8 °F 34.5 °F 39.2 °F 87% 29.37 in 10.0 mi West 18.4 mph 29.9 mph N/A   Overcast
7:55 AM 41.0 °F 32.5 °F 37.4 °F 87% 29.39 in 10.0 mi WSW 17.3 mph 23.0 mph N/A   Overcast
8:15 AM 41.0 °F 33.5 °F 35.6 °F 81% 29.41 in 10.0 mi West 13.8 mph 23.0 mph N/A   Overcast
8:35 AM 41.0 °F 34.3 °F 33.8 °F 76% 29.41 in 10.0 mi WSW 11.5 mph 19.6 mph N/A   Mostly Cloudy
8:55 AM 41.0 °F 32.5 °F 33.8 °F 76% 29.43 in 10.0 mi WSW 17.3 mph 24.2 mph N/A   Overcast
9:15 AM 41.0 °F 32.5 °F 32.0 °F 70% 29.43 in 10.0 mi WSW 17.3 mph 28.8 mph N/A   Mostly Cloudy
9:35 AM 41.0 °F 32.2 °F 30.2 °F 65% 29.44 in 10.0 mi WSW 18.4 mph 33.4 mph N/A   Mostly Cloudy
9:55 AM 37.4 °F 27.5 °F 28.4 °F 70% 29.46 in 10.0 mi West 18.4 mph 27.6 mph N/A   Mostly Cloudy
10:15 AM 37.4 °F 25.9 °F 26.6 °F 65% 29.47 in 10.0 mi West 25.3 mph 32.2 mph N/A   Overcast
10:35 AM 37.4 °F 27.2 °F 24.8 °F 60% 29.48 in 10.0 mi WSW 19.6 mph 32.2 mph N/A   Overcast
10:55 AM 35.6 °F 24.8 °F 21.2 °F 56% 29.48 in 10.0 mi West 19.6 mph 32.2 mph N/A   Overcast
11:15 AM 35.6 °F 23.7 °F 19.4 °F 52% 29.49 in 10.0 mi West 24.2 mph 32.2 mph N/A   Mostly Cloudy
11:35 AM 37.4 °F 26.9 °F 19.4 °F 48% 29.49 in 10.0 mi West 20.7 mph 29.9 mph N/A   Overcast
11:55 AM 35.6 °F 23.2 °F 15.8 °F 44% 29.50 in 10.0 mi West 26.5 mph 33.4 mph N/A   Overcast
12:15 PM 33.8 °F 21.6 °F 15.8 °F 48% 29.51 in 10.0 mi West 23.0 mph 31.1 mph N/A   Overcast
12:35 PM 33.8 °F 22.2 °F 14.0 °F 44% 29.51 in 10.0 mi West 20.7 mph 38.0 mph N/A   Overcast
12:55 PM 33.8 °F 22.8 °F 15.8 °F 48% 29.51 in 10.0 mi West 18.4 mph 31.1 mph N/A   Overcast
1:15 PM 33.8 °F 21.9 °F 15.8 °F 48% 29.52 in 10.0 mi West 21.9 mph 32.2 mph N/A   Overcast
1:35 PM 33.8 °F 21.3 °F 15.8 °F 48% 29.52 in 10.0 mi WSW 24.2 mph 35.7 mph N/A   Overcast
1:55 PM 35.6 °F 24.8 °F 15.8 °F 44% 29.53 in 10.0 mi WSW 19.6 mph 36.8 mph N/A   Mostly Cloudy
2:15 PM 33.8 °F 21.6 °F 14.0 °F 44% 29.54 in 10.0 mi West 23.0 mph 31.1 mph N/A   Overcast
2:35 PM 33.8 °F 21.3 °F 14.0 °F 44% 29.55 in 10.0 mi West 24.2 mph 38.0 mph N/A   Mostly Cloudy
2:55 PM 33.8 °F 21.3 °F 12.2 °F 41% 29.57 in 10.0 mi West 24.2 mph 33.4 mph N/A   Mostly Cloudy
3:15 PM 33.8 °F 23.2 °F 12.2 °F 41% 29.59 in 10.0 mi West 17.3 mph 32.2 mph N/A   Overcast
3:35 PM 33.8 °F 22.2 °F 12.2 °F 41% 29.60 in 10.0 mi West 20.7 mph 34.5 mph N/A   Overcast
3:55 PM 33.8 °F 21.9 °F 12.2 °F 41% 29.62 in 10.0 mi West 21.9 mph 35.7 mph N/A   Overcast
4:15 PM 32.0 °F 19.2 °F 10.4 °F 41% 29.64 in 10.0 mi WSW 23.0 mph 39.1 mph N/A   Overcast
4:35 PM 30.2 °F 17.1 °F 14.0 °F 51% 29.66 in 10.0 mi West 21.9 mph 29.9 mph N/A   Overcast
4:55 PM 30.2 °F 16.2 °F 12.2 °F 47% 29.67 in 10.0 mi West 25.3 mph 36.8 mph N/A   Mostly Cloudy
5:15 PM 30.2 °F 18.9 °F 10.4 °F 44% 29.69 in 10.0 mi West 16.1 mph 27.6 mph N/A   Clear
5:35 PM 30.2 °F 18.1 °F 12.2 °F 47% 29.70 in 10.0 mi West 18.4 mph 27.6 mph N/A   Clear
5:55 PM 30.2 °F 20.2 °F 10.4 °F 44% 29.72 in 10.0 mi West 12.7 mph 31.1 mph N/A   Clear
6:15 PM 30.2 °F 18.5 °F 10.4 °F 44% 29.74 in 10.0 mi West 17.3 mph 23.0 mph N/A   Clear
6:35 PM 30.2 °F 19.8 °F 10.4 °F 44% 29.75 in 10.0 mi West 13.8 mph 20.7 mph N/A   Clear
6:55 PM 30.2 °F 19.3 °F 12.2 °F 47% 29.76 in 10.0 mi West 15.0 mph 28.8 mph N/A   Clear
7:15 PM 30.2 °F 20.8 °F 12.2 °F 47% 29.76 in 10.0 mi West 11.5 mph - N/A   Clear
7:35 PM 30.2 °F 20.2 °F 12.2 °F 47% 29.77 in 10.0 mi WSW 12.7 mph 23.0 mph N/A   Clear
7:55 PM 30.2 °F 19.8 °F 12.2 °F 47% 29.78 in 10.0 mi West 13.8 mph 20.7 mph N/A   Clear
8:15 PM 30.2 °F 18.9 °F 12.2 °F 47% 29.79 in 10.0 mi West 16.1 mph 26.5 mph N/A   Clear
8:55 PM 30.2 °F 19.8 °F 14.0 °F 51% 29.80 in 10.0 mi West 13.8 mph 21.9 mph N/A   Clear
9:15 PM 30.2 °F 19.3 °F 14.0 °F 51% 29.81 in 10.0 mi West 15.0 mph 24.2 mph N/A   Clear
9:35 PM 30.2 °F 19.8 °F 14.0 °F 51% 29.82 in 10.0 mi West 13.8 mph 21.9 mph N/A   Clear
9:55 PM 30.2 °F 19.8 °F 14.0 °F 51% 29.82 in 10.0 mi West 13.8 mph 28.8 mph N/A   Clear
10:15 PM 30.2 °F 19.3 °F 15.8 °F 55% 29.82 in 10.0 mi West 15.0 mph 25.3 mph N/A   Clear
10:55 PM 28.4 °F 17.0 °F 15.8 °F 59% 29.83 in 10.0 mi West 15.0 mph 21.9 mph N/A   Clear
11:15 PM 28.4 °F 18.5 °F 15.8 °F 59% 29.84 in 10.0 mi West 11.5 mph 19.6 mph N/A   Clear
11:35 PM 28.4 °F 19.1 °F 14.0 °F 55% 29.85 in 10.0 mi WSW 10.4 mph 17.3 mph N/A   Clear
11:55 PM 28.4 °F 17.5 °F 15.8 °F 59% 29.85 in 10.0 mi West 13.8 mph 20.7 mph N/A   Clear